Weather History for Pinedale, WY

Change the Weather History Date:

Sunday, May 26, 2013

  Actual Average (KBPI) Record (KBPI)
Temperature  
Mean Temperature 52 °F 49 °F  
Max Temperature 69 °F 65 °F 80 °F (2003)
Min Temperature 35 °F 33 °F 23 °F (1977)
Degree Days  
Heating Degree Days 13 16  
Month to date heating degree days 519  
Since 1 July heating degree days 10050  
Cooling Degree Days 0 0  
Month to date cooling degree days 0  
Year to date cooling degree days 0  
Growing Degree Days 2 (Base 50)    
Moisture  
Dew Point 24 °F    
Average Humidity 38    
Maximum Humidity 75    
Minimum Humidity 12    
Precipitation  
Precipitation 0.00 in 0.03 in 0.28 in (1981)
Month to date precipitation 0.70  
Year to date precipitation 2.33  
Sea Level Pressure  
Sea Level Pressure 30.02 in    
Wind  
Wind Speed 5 mph (WSW)    
Max Wind Speed 20 mph    
Max Gust Speed 28 mph    
Visibility 10 miles    
Events      
T = Trace of Precipitation, MM = Missing Value Source: NWS Daily Summary

Daily Weather History Graph

Daily Weather History Graph

Search for Another Location

Airport:

Trip Planner

Search our weather history database for the weather conditions in past years. The results will help you decide how hot, cold, wet, or windy it might be!

Date:

Astronomy

May. 26, 2013 Rise Set
Actual Time 5:46 AM MDT 8:46 PM MDT
Civil Twilight 5:13 AM MDT 9:20 PM MDT
Nautical Twilight 4:30 AM MDT 10:03 PM MDT
Astronomical Twilight 3:39 AM MDT 10:54 PM MDT
Moon 10:36 PM MDT (5/26) 7:20 AM MDT (5/26)
Length of Visible Light 16h 06m
Length of Day
14h 59m
Waning Gibbous, 96% of the Moon is Illuminated
May 26
Waning Gibbous
May 31
Last Quarter
Jun 8
New
Jun 16
First Quarter
Jun 23
Full

Hourly Weather History & Observations

Time (MDT) Temp. Windchill Dew Point Humidity Pressure Visibility Wind Dir Wind Speed Gust Speed Precip Events Conditions
12:15 AM 46.4 °F - 24.8 °F 43% 30.04 in 10.0 mi Calm Calm - N/A   Clear
12:35 AM 46.4 °F - 26.6 °F 46% 30.04 in 10.0 mi Calm Calm - N/A   Clear
12:55 AM 44.6 °F - 26.6 °F 49% 30.04 in 10.0 mi Calm Calm - N/A   Clear
1:15 AM 44.6 °F - 26.6 °F 49% 30.04 in 10.0 mi Calm Calm - N/A   Clear
1:35 AM 42.8 °F 40.1 °F 26.6 °F 53% 30.04 in 10.0 mi NW 4.6 mph - N/A   Clear
1:55 AM 41.0 °F 38.0 °F 26.6 °F 57% 30.03 in 10.0 mi West 4.6 mph - N/A   Clear
2:15 AM 41.0 °F 38.0 °F 28.4 °F 61% 30.03 in 10.0 mi West 4.6 mph - N/A   Clear
2:35 AM 39.2 °F 35.9 °F 28.4 °F 65% 30.03 in 10.0 mi NW 4.6 mph - N/A   Clear
2:55 AM 37.4 °F 33.8 °F 28.4 °F 70% 30.03 in 10.0 mi West 4.6 mph - N/A   Clear
3:15 AM 37.4 °F 31.4 °F 28.4 °F 70% 30.03 in 10.0 mi NW 8.1 mph - N/A   Scattered Clouds
3:35 AM 35.6 °F 30.7 °F 28.4 °F 75% 30.03 in 10.0 mi West 5.8 mph - N/A   Clear
3:55 AM 35.6 °F 31.7 °F 28.4 °F 75% 30.04 in 10.0 mi West 4.6 mph - N/A   Clear
4:15 AM 35.6 °F 30.7 °F 28.4 °F 75% 30.05 in 10.0 mi NW 5.8 mph - N/A   Scattered Clouds
4:35 AM 35.6 °F 31.7 °F 28.4 °F 75% 30.05 in 10.0 mi WNW 4.6 mph - N/A   Clear
4:55 AM 35.6 °F 31.7 °F 28.4 °F 75% 30.05 in 10.0 mi West 4.6 mph - N/A   Clear
5:15 AM 35.6 °F 31.7 °F 28.4 °F 75% 30.05 in 10.0 mi West 4.6 mph - N/A   Clear
5:35 AM 35.6 °F 32.8 °F 28.4 °F 75% 30.05 in 10.0 mi West 3.5 mph - N/A   Clear
5:55 AM 35.6 °F 32.8 °F 28.4 °F 75% 30.05 in 10.0 mi WNW 3.5 mph - N/A   Clear
6:15 AM 37.4 °F 33.8 °F 30.2 °F 75% 30.05 in 10.0 mi WNW 4.6 mph - N/A   Clear
6:35 AM 39.2 °F 37.0 °F 30.2 °F 70% 30.05 in 10.0 mi NNW 3.5 mph - N/A   Clear
6:55 AM 39.2 °F 35.0 °F 30.2 °F 70% 30.05 in 10.0 mi NW 5.8 mph - N/A   Clear
7:15 AM 41.0 °F 38.0 °F 30.2 °F 65% 30.06 in 10.0 mi WNW 4.6 mph - N/A   Clear
7:35 AM 42.8 °F 41.1 °F 32.0 °F 66% 30.06 in 10.0 mi NW 3.5 mph - N/A   Clear
7:55 AM 44.6 °F - 30.2 °F 57% 30.06 in 10.0 mi Calm Calm - N/A   Clear
8:15 AM 50.0 °F - 30.2 °F 47% 30.06 in 10.0 mi East 3.5 mph - N/A   Clear
8:35 AM 51.8 °F - 30.2 °F 44% 30.05 in 10.0 mi East 3.5 mph - N/A   Clear
8:55 AM 55.4 °F - 28.4 °F 36% 30.05 in 10.0 mi SE 5.8 mph - N/A   Scattered Clouds
9:15 AM 57.2 °F - 28.4 °F 33% 30.05 in 10.0 mi ESE 5.8 mph - N/A   Scattered Clouds
9:35 AM 59.0 °F - 28.4 °F 31% 30.05 in 10.0 mi SE 5.8 mph - N/A   Scattered Clouds
9:55 AM 60.8 °F - 21.2 °F 22% 30.05 in 10.0 mi South 11.5 mph - N/A   Scattered Clouds
10:15 AM 62.6 °F - 21.2 °F 20% 30.03 in 10.0 mi South 10.4 mph - N/A   Scattered Clouds
10:35 AM 62.6 °F - 21.2 °F 20% 30.03 in 10.0 mi SSW 8.1 mph - N/A   Clear
10:55 AM 62.6 °F - 17.6 °F 18% 30.03 in 10.0 mi SSW 10.4 mph 16.1 mph N/A   Clear
11:15 AM 64.4 °F - 17.6 °F 16% 30.03 in 10.0 mi South 6.9 mph 18.4 mph N/A   Clear
11:35 AM 64.4 °F - 17.6 °F 16% 30.03 in 10.0 mi Calm Calm - N/A   Clear
11:55 AM 64.4 °F - 19.4 °F 18% 30.03 in 10.0 mi SSW 12.7 mph 19.6 mph N/A   Clear
12:15 PM 66.2 °F - 19.4 °F 17% 30.02 in 10.0 mi WSW 6.9 mph 17.3 mph N/A   Clear
12:35 PM 64.4 °F - 17.6 °F 16% 30.01 in 10.0 mi South 9.2 mph 17.3 mph N/A   Clear
12:55 PM 64.4 °F - 19.4 °F 18% 30.01 in 10.0 mi South 9.2 mph - N/A   Scattered Clouds
1:15 PM 66.2 °F - 19.4 °F 17% 30.01 in 10.0 mi SSE 6.9 mph 18.4 mph N/A   Scattered Clouds
1:35 PM 68.0 °F - 21.2 °F 17% 30.00 in 10.0 mi South 12.7 mph 21.9 mph N/A   Scattered Clouds
1:55 PM 68.0 °F - 17.6 °F 15% 30.00 in 10.0 mi SSW 9.2 mph 21.9 mph N/A   Scattered Clouds
2:15 PM 68.0 °F - 17.6 °F 15% 29.99 in 10.0 mi South 12.7 mph 23.0 mph N/A   Scattered Clouds
2:35 PM 68.0 °F - 17.6 °F 15% 29.99 in 10.0 mi SSW 13.8 mph 20.7 mph N/A   Clear
2:55 PM 69.8 °F - 17.6 °F 14% 29.99 in 10.0 mi SSW 19.6 mph 27.6 mph N/A   Clear
3:15 PM 68.0 °F - 14.0 °F 12% 30.00 in 10.0 mi SW 16.1 mph 24.2 mph N/A   Scattered Clouds
3:35 PM 68.0 °F - 14.0 °F 12% 29.99 in 10.0 mi SW 10.4 mph 24.2 mph N/A   Scattered Clouds
3:55 PM 66.2 °F - 14.0 °F 13% 29.99 in 10.0 mi SW 12.7 mph 21.9 mph N/A   Mostly Cloudy
4:15 PM 68.0 °F - 15.8 °F 13% 29.99 in 10.0 mi SW 11.5 mph 19.6 mph N/A   Scattered Clouds
4:35 PM 68.0 °F - 14.0 °F 12% 29.98 in 10.0 mi SSW 5.8 mph 21.9 mph N/A   Scattered Clouds
4:55 PM 68.0 °F - 14.0 °F 12% 29.98 in 10.0 mi SW 11.5 mph 24.2 mph N/A   Scattered Clouds
5:15 PM 68.0 °F - 14.0 °F 12% 29.98 in 10.0 mi WSW 11.5 mph 25.3 mph N/A   Clear
5:35 PM 66.2 °F - 14.0 °F 13% 29.98 in 10.0 mi SW 10.4 mph 23.0 mph N/A   Scattered Clouds
5:55 PM 66.2 °F - 17.6 °F 15% 29.97 in 10.0 mi SW 10.4 mph 21.9 mph N/A   Scattered Clouds
6:15 PM 64.4 °F - 17.6 °F 16% 29.97 in 10.0 mi WSW 11.5 mph 21.9 mph N/A   Clear
6:35 PM 64.4 °F - 19.4 °F 18% 29.97 in 10.0 mi SW 16.1 mph 19.6 mph N/A   Clear
6:55 PM 64.4 °F - 19.4 °F 18% 29.97 in 10.0 mi West 17.3 mph 23.0 mph N/A   Clear
7:15 PM 64.4 °F - 21.2 °F 19% 29.97 in 10.0 mi West 15.0 mph - N/A   Clear
7:35 PM 64.4 °F - 19.4 °F 18% 29.97 in 10.0 mi WSW 10.4 mph - N/A   Clear
7:55 PM 62.6 °F - 23.0 °F 22% 29.99 in 10.0 mi WNW 19.6 mph - N/A   Clear
8:15 PM 59.0 °F - 26.6 °F 29% 30.00 in 10.0 mi NW 16.1 mph 27.6 mph N/A   Clear
8:35 PM 57.2 °F - 30.2 °F 36% 30.00 in 10.0 mi NW 11.5 mph - N/A   Clear
8:55 PM 55.4 °F - 28.4 °F 36% 30.00 in 10.0 mi North 10.4 mph - N/A   Clear
9:15 PM 55.4 °F - 28.4 °F 36% 30.00 in 10.0 mi NW 3.5 mph - N/A   Clear
9:35 PM 53.6 °F - 28.4 °F 38% 29.99 in 10.0 mi NW 3.5 mph - N/A   Clear
9:55 PM 53.6 °F - 26.6 °F 35% 29.99 in 10.0 mi Calm Calm - N/A   Clear
10:15 PM 53.6 °F - 28.4 °F 38% 29.99 in 10.0 mi Calm Calm - N/A   Clear
10:35 PM 53.6 °F - 28.4 °F 38% 29.99 in 10.0 mi West 4.6 mph - N/A   Scattered Clouds
10:55 PM 51.8 °F - 28.4 °F 41% 29.99 in 10.0 mi WNW 4.6 mph - N/A   Clear
11:15 PM 50.0 °F - 28.4 °F 43% 29.99 in 10.0 mi WNW 3.5 mph - N/A   Clear
11:35 PM 48.2 °F - 30.2 °F 50% 29.99 in 10.0 mi NW 4.6 mph - N/A   Clear
11:55 PM 48.2 °F - 30.2 °F 50% 29.99 in 10.0 mi NW 6.9 mph - N/A   Clear